#timestamp,LO_Frequency,Hit,StdDev 
1691010015.6,286047000.7,N
1691010035.4,286047000.8,N
1691010055.3,286046999.3,N
1691010075.1,286046998.3,N
1691010076.0,286046998.3,N
1691010095.8,286046998.8,N
1691010115.7,286047001.0,N
1691010135.5,286046998.1,N
1691010155.3,286047001.1,N
1691010175.2,286047001.1,N
1691010195.0,286046999.6,N
1691010195.9,286046999.6,N
1691010215.8,286046999.6,N
1691010235.6,286046998.7,N
1691010255.4,286046998.9,N
1691010275.3,286047000.6,N
1691010295.1,286047000.0,N
1691010315.9,286047000.3,N
1691010335.7,286047001.1,N
1691010355.5,286046998.6,N
1691010375.4,286046998.7,N
1691010395.2,286046998.4,N
1691010415.0,286046999.4,N
1691010415.9,286046999.4,N
1691010435.8,286046998.7,N
1691010455.6,286046999.0,N
1691010475.5,286046998.6,N
1691010495.3,286046998.3,N
1691010515.1,286046999.4,N
1691010535.9,286046999.1,N
1691010555.7,286046997.8,N
1691010575.5,286046997.3,N
1691010595.4,286046996.8,Y
1691010615.2,286046997.0,P
1691010635.1,286046997.4,N
1691010636.0,286046997.4,N
1691010655.8,286046999.3,N
1691010675.6,286046999.1,N
1691010695.5,286046998.5,N
1691010715.3,286046999.3,N
1691010735.2,286046998.5,N
1691010755.9,286046999.9,N
1691010775.7,286046999.8,N
1691010795.6,286047000.4,N
1691010815.4,286047000.3,N
1691010835.2,286046999.7,N
1691010855.1,286047002.8,N
1691010856.0,286047002.8,N
1691010875.8,286047002.2,N
1691010895.7,286047002.7,N
1691010915.5,286047000.0,N
1691010935.3,286047002.1,N
1691010955.2,286047002.1,N
1691010975.0,286047001.6,N
1691010975.9,286047001.6,N
1691010995.7,286047001.5,N
1691011015.6,286047001.7,N
1691011035.4,286047001.6,N
1691011055.3,286047004.2,N
1691011075.1,286047003.2,N
1691011076.0,286047003.2,N
1691011095.8,286047004.2,N
1691011115.7,286047003.1,N
1691011135.5,286047003.3,N
1691011155.4,286047003.0,N
1691011175.2,286047003.4,N
1691011195.0,286047006.0,Y
1691011195.9,286047006.0,P
1691011215.8,286047004.0,N
1691011235.6,286047002.1,N
1691011255.4,286047001.5,N
1691011275.3,286047004.3,N
1691011295.1,286047003.9,N
1691011315.9,286047001.6,N
1691011335.7,286047001.7,N
1691011355.5,286047002.0,N
1691011375.4,286047004.4,N
1691011395.2,286047004.0,N
1691011415.0,286047002.1,N
1691011415.9,286047002.1,N
1691011435.8,286047001.7,N
1691011455.6,286047001.9,N
1691011475.5,286047002.0,N
1691011495.3,286047002.6,N
1691011515.1,286047001.5,N
1691011535.9,286047002.7,N
1691011555.7,286047001.8,N
1691011575.5,286047002.4,N
1691011595.4,286047002.0,N
1691011615.2,286047000.3,N
1691011635.1,286046999.7,N
1691011636.0,286046999.7,N
1691011655.8,286047001.1,N
1691011675.6,286047000.8,N
1691011695.5,286047000.6,N
1691011715.3,286047000.9,N
1691011735.1,286046999.9,N
1691011755.9,286046999.7,N
1691011775.7,286047001.9,N
1691011795.6,286046999.7,N
1691011815.4,286047002.4,N
1691011835.2,286047002.1,N
1691011855.1,286047001.5,N
1691011856.0,286047001.5,N
1691011875.8,286047003.2,N
1691011895.6,286047001.8,N
1691011915.5,286047002.2,N
1691011935.3,286047001.9,N
1691011955.2,286047001.7,N
1691011975.9,286047004.0,Y
1691011995.7,286047000.0,P
1691012015.6,286047000.7,N
1691012035.4,286046998.6,N
1691012055.3,286047001.1,N
1691012075.1,286047001.1,N
1691012076.0,286047001.1,N
1691012095.8,286047001.2,N
1691012115.7,286047000.7,N
1691012135.5,286047000.4,N
1691012155.4,286046999.8,N
1691012175.2,286047000.4,N
1691012195.0,286047002.4,Y
1691012195.9,286047002.4,P
1691012215.8,286047000.7,N
1691012235.6,286047000.8,N
1691012255.4,286046998.8,N
1691012275.3,286046998.2,N
1691012295.1,286047000.6,N
1691012315.9,286047001.2,N
1691012335.7,286046998.9,N
1691012355.5,286046998.1,N
1691012375.4,286046998.1,N
1691012395.2,286046998.9,N
1691012415.0,286046998.2,N
1691012415.9,286046998.2,N
1691012435.8,286046998.7,N
1691012455.6,286046998.3,N
1691012475.5,286046998.6,N
1691012495.3,286047000.3,N
1691012515.1,286047000.7,N
1691012535.9,286046999.9,N
1691012555.7,286047000.6,N
1691012575.5,286047000.8,N
1691012595.4,286046999.8,N
1691012615.2,286047000.1,N
1691012635.1,286047002.0,N
1691012636.0,286047002.0,N
1691012655.8,286047001.9,N
1691012675.6,286047001.6,N
1691012695.5,286047001.5,N
1691012715.3,286047001.7,N
1691012735.2,286047001.6,N
1691012755.9,286047002.0,N
1691012775.7,286047002.3,N
1691012795.6,286047002.8,N
1691012815.4,286047000.0,N
1691012835.2,286046998.1,N
1691012855.1,286046998.5,N
1691012856.0,286046998.5,N
1691012875.8,286046998.6,N
1691012895.7,286047000.5,N
1691012915.5,286047000.2,N
1691012935.3,286047002.7,N
1691012955.2,286047002.6,N
1691012975.0,286047002.5,N
1691012975.9,286047002.5,N
1691012995.8,286047001.6,N
1691013015.6,286047001.4,N
1691013035.4,286047001.4,N
1691013055.3,286047001.6,N
1691013075.1,286046999.7,N
1691013095.9,286047002.5,N
1691013115.7,286047002.7,N
1691013135.5,286047004.4,Y
1691013155.4,286047002.4,P
1691013175.2,286047002.5,P
1691013195.0,286046999.8,N
1691013196.0,286046999.8,N
1691013215.8,286046999.7,N
1691013235.6,286047002.3,N
1691013255.5,286047002.0,N
1691013275.3,286047001.9,N
1691013295.1,286047002.0,N
1691013315.9,286047001.7,N
1691013335.7,286047004.4,Y
1691013355.6,286047002.4,P
1691013375.4,286047000.4,N
1691013395.2,286047000.5,N
1691013415.1,286047000.3,N
1691013416.0,286047000.3,N
1691013435.8,286047001.0,N
1691013455.7,286046999.3,N
1691013475.5,286046998.7,N
1691013495.3,286046998.1,N
1691013515.2,286046998.5,N
1691013535.0,286046998.2,N
1691013535.9,286046998.2,N
1691013555.8,286047001.2,N
1691013575.6,286047000.3,N
1691013595.4,286047000.0,N
